Weather History for Copper Mountain, CO

Change the Weather History Date:

Tuesday, October 23, 2012

  Actual Average (KLXV) Record (KLXV)
Temperature  
Mean Temperature 38 °F -  
Max Temperature 44 °F 47 °F 61 °F (2003)
Min Temperature 33 °F 21 °F 9 °F (2008)
Degree Days  
Heating Degree Days 26 31  
Month to date heating degree days 629  
Since 1 July heating degree days 1927  
Cooling Degree Days 0 0  
Month to date cooling degree days 0  
Year to date cooling degree days 0  
Moisture  
Dew Point 10 °F    
Average Humidity 33    
Maximum Humidity 81    
Minimum Humidity 11    
Precipitation  
Precipitation 0.00 in 0.03 in 0.23 in (2000)
Month to date precipitation 0.67  
Year to date precipitation 10.70  
Sea Level Pressure  
Sea Level Pressure 30.11 in    
Wind  
Wind Speed 20 mph (SSW)    
Max Wind Speed 33 mph    
Max Gust Speed 47 mph    
Visibility 10 miles    
Events Snow    
T = Trace of Precipitation, MM = Missing Value Source: NWS Daily Summary

Daily Weather History Graph

Daily Weather History Graph

Search for Another Location

Airport:

Trip Planner

Search our weather history database for the weather conditions in past years. The results will help you decide how hot, cold, wet, or windy it might be!

Date:

Astronomy

Oct. 23, 2012 Rise Set
Actual Time 7:23 AM MDT 6:13 PM MDT
Civil Twilight 6:56 AM MDT 6:40 PM MDT
Nautical Twilight 6:24 AM MDT 7:12 PM MDT
Astronomical Twilight 5:53 AM MDT 7:43 PM MDT
Moon 2:57 PM MDT (10/23) 1:20 AM MDT (10/23)
Length of Visible Light 11h 44m
Length of Day
10h 50m
Waxing Gibbous, 67% of the Moon is Illuminated
Oct 23
Waxing Gibbous
Oct 29
Full
Nov 6
Last Quarter
Nov 13
New
Nov 20
First Quarter

Hourly Weather History & Observations

Time (MDT) Temp. Windchill Dew Point Humidity Pressure Visibility Wind Dir Wind Speed Gust Speed Precip Events Conditions
12:16 AM 37.4 °F 27.5 °F 14.0 °F 38% 30.11 in 10.0 mi SSW 18.4 mph 29.9 mph N/A   Clear
12:36 AM 37.4 °F 26.6 °F 17.6 °F 45% 30.10 in 10.0 mi SW 21.9 mph 35.7 mph N/A   Clear
12:56 AM 37.4 °F 25.2 °F 14.0 °F 38% 30.10 in 10.0 mi SW 28.8 mph 39.1 mph N/A   Clear
1:16 AM 37.4 °F 25.6 °F 14.0 °F 38% 30.08 in 10.0 mi SW 26.5 mph 44.9 mph N/A   Clear
1:36 AM 37.4 °F 27.2 °F 17.6 °F 45% 30.08 in 10.0 mi SW 19.6 mph 28.8 mph N/A   Clear
1:56 AM 37.4 °F 26.9 °F 15.8 °F 41% 30.08 in 10.0 mi SW 20.7 mph 38.0 mph N/A   Clear
2:16 AM 37.4 °F 26.9 °F 17.6 °F 45% 30.08 in 10.0 mi SW 20.7 mph 33.4 mph N/A   Clear
2:36 AM 37.4 °F 26.9 °F 17.6 °F 45% 30.08 in 10.0 mi SW 20.7 mph 33.4 mph N/A   Clear
2:56 AM 37.4 °F 27.8 °F 17.6 °F 45% 30.09 in 10.0 mi SSW 17.3 mph 27.6 mph N/A   Clear
3:16 AM 37.4 °F 28.2 °F 17.6 °F 45% 30.09 in 10.0 mi South 16.1 mph 24.2 mph N/A   Clear
3:36 AM 37.4 °F 27.5 °F 17.6 °F 45% 30.08 in 10.0 mi South 18.4 mph 31.1 mph N/A   Clear
3:56 AM 37.4 °F 28.9 °F 15.8 °F 41% 30.08 in 10.0 mi SSW 13.8 mph 29.9 mph N/A   Clear
4:16 AM 37.4 °F 28.2 °F 14.0 °F 38% 30.08 in 10.0 mi SW 16.1 mph 28.8 mph N/A   Clear
4:36 AM 37.4 °F 30.3 °F 15.8 °F 41% 30.08 in 10.0 mi SW 10.4 mph 20.7 mph N/A   Clear
4:56 AM 37.4 °F 28.9 °F 17.6 °F 45% 30.08 in 10.0 mi WSW 13.8 mph 28.8 mph N/A   Clear
5:36 AM 37.4 °F 28.2 °F 19.4 °F 48% 30.08 in 10.0 mi SSW 16.1 mph 29.9 mph N/A   Clear
5:56 AM 37.4 °F 26.9 °F 19.4 °F 48% 30.09 in 10.0 mi SSW 20.7 mph 41.4 mph N/A   Clear
6:16 AM 37.4 °F 26.1 °F 17.6 °F 45% 30.08 in 10.0 mi South 24.2 mph 43.7 mph N/A   Clear
6:36 AM 37.4 °F 26.1 °F 19.4 °F 48% 30.08 in 10.0 mi South 24.2 mph 33.4 mph N/A   Clear
6:56 AM 37.4 °F 27.8 °F 21.2 °F 52% 30.08 in 10.0 mi South 17.3 mph 31.1 mph N/A   Clear
7:16 AM 37.4 °F 24.4 °F 23.0 °F 56% 30.07 in 7.0 mi WSW 33.4 mph 44.9 mph N/A Snow Light Snow
7:36 AM 33.8 °F 24.3 °F 28.4 °F 81% 30.10 in 0.8 mi SSW 13.8 mph 32.2 mph N/A Snow Snow
7:56 AM 33.8 °F 23.2 °F 28.4 °F 81% 30.11 in 1.8 mi SSW 17.3 mph 29.9 mph N/A Snow Light Snow
8:16 AM 33.8 °F 26.4 °F 28.4 °F 81% 30.12 in 10.0 mi SW 9.2 mph 19.6 mph N/A   Mostly Cloudy
8:36 AM 35.6 °F 26.6 °F 26.6 °F 70% 30.12 in 10.0 mi SW 13.8 mph 28.8 mph N/A   Mostly Cloudy
9:16 AM 35.6 °F 27.1 °F 23.0 °F 60% 30.11 in 10.0 mi SSW 12.7 mph 21.9 mph N/A   Clear
9:56 AM 39.2 °F 28.5 °F 14.0 °F 36% 30.10 in 10.0 mi South 24.2 mph 43.7 mph N/A   Clear
10:16 AM 41.0 °F 30.5 °F 12.2 °F 31% 30.08 in 10.0 mi South 26.5 mph 42.6 mph N/A   Clear
10:36 AM 41.0 °F 31.9 °F 14.0 °F 33% 30.10 in 10.0 mi SSW 19.6 mph 43.7 mph N/A   Clear
10:56 AM 41.0 °F 31.6 °F 8.6 °F 26% 30.11 in 10.0 mi SSW 20.7 mph 38.0 mph N/A   Clear
11:16 AM 41.0 °F 31.6 °F 8.6 °F 26% 30.10 in 10.0 mi SSW 20.7 mph 40.3 mph N/A   Clear
11:36 AM 42.8 °F 34.3 °F 5.0 °F 21% 30.11 in 10.0 mi South 19.6 mph 38.0 mph N/A   Clear
11:56 AM 44.6 °F 34.4 °F 1.4 °F 17% 30.11 in 10.0 mi South 32.2 mph 47.2 mph N/A   Clear
12:16 PM 44.6 °F 35.5 °F -0.4 °F 15% 30.11 in 10.0 mi South 25.3 mph 39.1 mph N/A   Clear
12:36 PM 44.6 °F 37.2 °F 1.4 °F 17% 30.11 in 10.0 mi SW 17.3 mph 28.8 mph N/A   Clear
12:56 PM 44.6 °F 37.4 °F -0.4 °F 15% 30.10 in 10.0 mi WSW 16.1 mph 26.5 mph N/A   Clear
1:16 PM 44.6 °F 38.8 °F -2.2 °F 14% 30.11 in 10.0 mi South 11.5 mph 28.8 mph N/A   Clear
1:36 PM 44.6 °F 38.1 °F -4.0 °F 13% 30.11 in 10.0 mi SW 13.8 mph 31.1 mph N/A   Clear
1:56 PM 44.6 °F 38.4 °F -0.4 °F 15% 30.10 in 10.0 mi SSW 12.7 mph 32.2 mph N/A   Clear
2:16 PM 44.6 °F 35.3 °F -5.8 °F 12% 30.10 in 10.0 mi South 26.5 mph 35.7 mph N/A   Clear
2:36 PM 44.6 °F 34.4 °F -7.6 °F 11% 30.11 in 10.0 mi South 32.2 mph 47.2 mph N/A   Clear
2:56 PM 44.6 °F 35.5 °F -5.8 °F 12% 30.10 in 10.0 mi South 25.3 mph 39.1 mph N/A   Clear
3:16 PM 44.6 °F 37.2 °F -4.0 °F 13% 30.11 in 10.0 mi SSW 17.3 mph 35.7 mph N/A   Clear
3:36 PM 44.6 °F 38.4 °F -2.2 °F 14% 30.11 in 10.0 mi SSW 12.7 mph 29.9 mph N/A   Clear
3:56 PM 44.6 °F 37.2 °F -4.0 °F 13% 30.11 in 10.0 mi South 17.3 mph 32.2 mph N/A   Clear
4:16 PM 44.6 °F 37.4 °F -4.0 °F 13% 30.11 in 10.0 mi SW 16.1 mph 26.5 mph N/A   Clear
4:36 PM 44.6 °F 38.1 °F -0.4 °F 15% 30.11 in 10.0 mi SSW 13.8 mph 26.5 mph N/A   Clear
4:56 PM 44.6 °F 38.1 °F -0.4 °F 15% 30.12 in 10.0 mi South 13.8 mph 33.4 mph N/A   Clear
5:16 PM 44.6 °F 36.9 °F 1.4 °F 17% 30.12 in 10.0 mi South 18.4 mph 33.4 mph N/A   Clear
5:36 PM 44.6 °F 36.6 °F 1.4 °F 17% 30.12 in 10.0 mi South 19.6 mph 33.4 mph N/A   Clear
5:56 PM 44.6 °F 35.5 °F 1.4 °F 17% 30.13 in 10.0 mi South 25.3 mph 38.0 mph N/A   Clear
6:16 PM 42.8 °F 32.5 °F 1.4 °F 18% 30.14 in 10.0 mi South 28.8 mph 40.3 mph N/A   Clear
6:36 PM 41.0 °F 30.7 °F 3.2 °F 21% 30.13 in 10.0 mi South 25.3 mph 34.5 mph N/A   Clear
6:56 PM 41.0 °F 30.2 °F 3.2 °F 21% 30.14 in 10.0 mi South 27.6 mph 40.3 mph N/A   Clear
7:16 PM 41.0 °F 32.5 °F 5.0 °F 23% 30.15 in 10.0 mi SSW 17.3 mph 35.7 mph N/A   Clear
7:36 PM 41.0 °F 32.5 °F 5.0 °F 23% 30.15 in 10.0 mi South 17.3 mph 27.6 mph N/A   Clear
7:56 PM 41.0 °F 30.9 °F 5.0 °F 23% 30.16 in 10.0 mi South 24.2 mph 29.9 mph N/A   Clear
8:16 PM 41.0 °F 31.6 °F 5.0 °F 23% 30.15 in 10.0 mi South 20.7 mph 31.1 mph N/A   Clear
8:36 PM 41.0 °F 31.4 °F 6.8 °F 24% 30.15 in 10.0 mi South 21.9 mph 28.8 mph N/A   Clear
8:56 PM 41.0 °F 33.1 °F 6.8 °F 24% 30.15 in 10.0 mi South 15.0 mph - N/A   Clear
9:16 PM 41.0 °F 32.2 °F 8.6 °F 26% 30.16 in 10.0 mi South 18.4 mph 21.9 mph N/A   Clear
9:36 PM 39.2 °F 29.6 °F 8.6 °F 28% 30.15 in 10.0 mi South 19.6 mph 27.6 mph N/A   Clear
9:56 PM 37.4 °F 26.6 °F 10.4 °F 33% 30.15 in 10.0 mi South 21.9 mph 28.8 mph N/A   Clear
10:16 PM 37.4 °F 26.9 °F 10.4 °F 33% 30.15 in 10.0 mi South 20.7 mph 26.5 mph N/A   Clear
10:36 PM 37.4 °F 27.2 °F 12.2 °F 36% 30.15 in 10.0 mi South 19.6 mph 28.8 mph N/A   Clear
10:56 PM 37.4 °F 26.6 °F 14.0 °F 38% 30.15 in 10.0 mi South 21.9 mph 27.6 mph N/A   Clear
11:16 PM 37.4 °F 27.5 °F 15.8 °F 41% 30.14 in 10.0 mi South 18.4 mph 28.8 mph N/A   Clear
11:36 PM 37.4 °F 26.6 °F 17.6 °F 45% 30.14 in 10.0 mi South 21.9 mph 27.6 mph N/A   Clear
11:56 PM 37.4 °F 26.4 °F 17.6 °F 45% 30.14 in 10.0 mi South 23.0 mph - N/A   Clear